sat.trackr.live / text

‹ back to catalog

STARLINK-2498

NORAD 48326 · 2021-036BC

PAYLOAD ACTIVE UNKNOWN

§ Identity

Operator
Country
US
Launch date
2021-04-29
Launch site
AFETR
Launch vehicle
Mass (kg)
RCS (m²)

Purposes: comms

External: N2YO · Heavens-Above · Gunter

§ Orbital elements

Epoch: 2026-09-20T01:23:00.921120Z

Period
94.01 min
Inclination
53.1584°
Eccentricity
0.0001666
Mean motion
15.31690686 rev/d
Perigee alt
469.6 km
Apogee alt
471.9 km
Semi-major
6,848.9 km
B*
2.4515e-4
RAAN
276.5547°
Arg perigee
77.9153°
Mean anomaly
282.2035°
Rev number
29,782

§ Raw data

STARLINK-24981 48326U 21036BC  26263.05764955  .00007247  00000+0  24515-3 0  99942 48326  53.1584 276.5547 0001666  77.9153 282.2035 15.31690686297823

JSON: /api/v1/satellites/48326 · /tle

For live sub-satellite position, see the globe view (requires WebGL).

§ Visibility from observer

Set your observer location to see the next 7 days of passes ≥ 10°. The values pass through the URL so the page stays shareable.

No JS? Fill the form by hand. The geolocation button needs JavaScript.